User: anonymous   Login
Location: ???????
(54.9996°N, 37.9529°E)
Time: 06:07:53
(UTC+00:00)
Language:

Hubble Space Telescope - Orbit

View from above orbital plane
View from above orbital plane
View from above satellite
View from above satellite

Ground track
Ground track

The orbit data is extracted from the following two-line orbital elements,

1 20580U 90037B   24197.58903395  .00007452  00000-0  34620-3 0  9995
2 20580  28.4673 154.7857 0002397 347.6804  12.3730 15.18093337681356
Epoch (UTC): 15 July 2024 14:08:12
Eccentricity: 0.0002397
inclination: 28.4673°
perigee height: 510 km
apogee height: 513 km
right ascension of ascending node: 154.7857°
argument of perigee: 347.6804°
revolutions per day: 15.18093337
mean anomaly at epoch: 12.3730°
orbit number at epoch: 68135

The dashed part of the orbit path shows where the satellite is in the earth's shadow,  

DLR